This demonstration page uses our WeatherBlox Daily Observations layout. Learn more.

Left ArrowRight Arrow

47.50024, -111.30081

Hourly Observations for May 3, 2015

Temp ( °F °C ) Dew Point ( °F °C ) Humidity (%) Winds ( mph kmh ) Pressure ( in mb ) Visibility ( mi km ) Precip ( " mm )
12:53 am 00:53 Cloudy 45 7.2 27 -2.8 49 49 NE 13 20 29.98 1015 10 16 0.00 0.00
1:53 am 01:53 Mostly Cloudy 43 6.1 26 -3.3 51 51 NE 12 19 30.00 1016 10 16 0.00 0.00
2:53 am 02:53 Cloudy 40 4.4 26 -3.3 58 58 NE 8 13 30.00 1016 10 16 0.00 0.00
3:53 am 03:53 Partly Cloudy 36 2.2 26 -3.3 67 67 NNE 6 9 30.01 1016 10 16 0.00 0.00
4:53 am 04:53 Clear 34 1.1 25 -3.9 70 70 Calm 30.02 1017 10 16 0.00 0.00
5:53 am 05:53 Clear 37 2.8 26 -3.3 65 65 Calm 30.02 1017 10 16 0.00 0.00
6:53 am 06:53 Sunny 34 1.1 26 -3.3 73 73 W 3 6 30.05 1018 10 16 0.00 0.00
7:53 am 07:53 Sunny 41 5 27 -2.8 57 57 Calm 30.05 1018 10 16 0.00 0.00
8:53 am 08:53 Sunny 45 7.2 29 -1.7 54 54 Calm 30.05 1018 10 16 0.00 0.00
9:53 am 09:53 Sunny 49 9.4 27 -2.8 43 43 ENE 7 11 30.05 1018 10 16 0.00 0.00
10:53 am 10:53 Sunny 50 10 29 -1.7 44 44 Calm 30.05 1018 10 16 0.00 0.00
11:53 am 11:53 Sunny 54 12.2 32 0 43 43 ESE 7 11 30.02 1017 10 16 0.00 0.00
12:53 pm 12:53 Sunny 57 13.9 31 -0.6 37 37 VRB 3 6 30.01 1016 10 16 0.00 0.00
1:53 pm 13:53 Sunny 59 15 29 -1.7 32 32 E 6 9 29.99 1016 10 16 0.00 0.00
2:53 pm 14:53 Sunny 60 15.6 28 -2.2 30 30 ESE 5 7 29.98 1015 10 16 0.00 0.00
3:53 pm 15:53 Sunny 64 17.8 25 -3.9 23 23 NNE 8 13 29.96 1015 10 16 0.00 0.00
4:53 pm 16:53 Sunny 64 17.8 24 -4.4 22 22 E 9 15 29.96 1015 10 16 0.00 0.00
5:53 pm 17:53 Sunny 64 17.8 21 -6.1 19 19 ENE 10 17 29.94 1014 10 16 0.00 0.00
6:53 pm 18:53 Sunny 63 17.2 20 -6.7 19 19 ENE 10 17 29.95 1014 10 16 0.00 0.00
7:53 pm 19:53 Sunny 59 15 21 -6.1 23 23 ENE 15 24 29.94 1014 10 16 0.00 0.00
8:53 pm 20:53 Clear 54 12.2 24 -4.4 31 31 NE 10 17 29.95 1014 10 16 0.00 0.00
9:53 pm 21:53 Clear 53 11.7 30 -1.1 41 41 ENE 10 17 29.96 1014 10 16 0.00 0.00
10:53 pm 22:53 Clear 45 7.2 31 -0.6 58 58 E 7 11 29.98 1015 10 16 0.00 0.00
11:53 pm 23:53 Clear 47 8.3 32 0 56 56 E 10 17 29.96 1015 10 16 0.00 0.00

Powered by AerisWeather